sat.trackr.live / text

‹ back to catalog

AIST-2T 1

NORAD 67253 · 2025-313F

PAYLOAD ACTIVE UNKNOWN

§ Identity

Operator
Country
CIS
Launch date
2025-12-28
Launch site
VOSTO
Launch vehicle
Mass (kg)
RCS (m²)

External: N2YO · Heavens-Above · Gunter

§ Orbital elements

Epoch: 2026-05-24T04:54:17.449632Z

Period
92.26 min
Inclination
97.0839°
Eccentricity
0.0006286
Mean motion
15.60752812 rev/d
Perigee alt
381.2 km
Apogee alt
389.7 km
Semi-major
6,763.6 km
B*
1.2475e-4
RAAN
221.8356°
Arg perigee
279.0840°
Mean anomaly
80.9707°
Rev number
2,288

§ Raw data

AIST-2T 11 67253U 25313F   26144.20436863  .00010271  00000+0  12475-3 0  99982 67253  97.0839 221.8356 0006286 279.0840  80.9707 15.60752812 22888

JSON: /api/v1/satellites/67253 · /tle

For live sub-satellite position, see the globe view (requires WebGL).

§ Visibility from observer

Set your observer location to see the next 7 days of passes ≥ 10°. The values pass through the URL so the page stays shareable.

No JS? Fill the form by hand. The geolocation button needs JavaScript.

§ Radio — SatNOGS DB

ModeDescriptionDownlinkUplink
FM Telemetry 435.792 MHz
FM Telemetry 436.090 MHz

2 transmitters · refreshed weekly from db.satnogs.org